Weather History for Campo, CA

Change the Weather History Date:

Tuesday, October 30, 2012

  Actual Average Record
Temperature  
Mean Temperature 62 °F 57 °F  
Max Temperature 84 °F 75 °F 87 °F (1965)
Min Temperature 39 °F 39 °F 24 °F (1971)
Degree Days  
Heating Degree Days 3 8  
Month to date heating degree days 122 153  
Since 1 July heating degree days 131 203  
Cooling Degree Days 0 0  
Month to date cooling degree days 33 27  
Year to date cooling degree days 942 838  
Growing Degree Days 13 (Base 50)    
Moisture  
Dew Point 26 °F    
Average Humidity 27    
Maximum Humidity 45    
Minimum Humidity 9    
Precipitation  
Precipitation 0.00 in 0.03 in 0.39 in (1951)
Month to date precipitation 0.34 0.78  
Year to date precipitation 7.81 12.29  
Since 1 July precipitation 1.76 2.14  
Snow  
Snow 0.00 in - - ()
Month to date snowfall 0.0  
Year to date snowfall 0.0  
Since 1 July snowfall 0.0  
Snow Depth 0.00 in    
Sea Level Pressure  
Sea Level Pressure 29.99 in    
Wind  
Wind Speed 7 mph (NE)    
Max Wind Speed 18 mph    
Max Gust Speed 23 mph    
T = Trace of Precipitation, MM = Missing Value Source: NWS Daily Summary

Daily Weather History Graph

Daily Weather History Graph

Search for Another Location

Airport:

Trip Planner

Search our weather history database for the weather conditions in past years. The results will help you decide how hot, cold, wet, or windy it might be!

Date:

Astronomy

Oct. 30, 2012 Rise Set
Actual Time 7:02 AM PDT 5:56 PM PDT
Civil Twilight 6:36 AM PDT 6:21 PM PDT
Nautical Twilight 6:07 AM PDT 6:50 PM PDT
Astronomical Twilight 5:39 AM PDT 7:19 PM PDT
Moon 6:33 PM PDT (10/30) 7:48 AM PDT (10/30)
Length of Visible Light 11h 44m
Length of Day
10h 54m
Full, 99% of the Moon is Illuminated
Oct 30
Full
Nov 6
Last Quarter
Nov 13
New
Nov 20
First Quarter
Nov 28
Full

Hourly Weather History & Observations

Time (PDT) Temp. Windchill Dew Point Humidity Pressure Visibility Wind Dir Wind Speed Gust Speed Precip Events Conditions
12:52 AM 43.0 °F 41.3 °F 21.9 °F 43% 30.03 in - NE 3.5 mph - N/A   Unknown
1:52 AM 43.0 °F 39.5 °F 23.0 °F 45% 30.03 in - NE 5.8 mph - N/A   Unknown
2:52 AM 44.1 °F 40.1 °F 24.1 °F 45% 30.01 in - NE 6.9 mph - N/A   Unknown
3:52 AM 44.1 °F 40.1 °F 23.0 °F 43% 30.00 in - NE 6.9 mph - N/A   Unknown
4:52 AM 43.0 °F 38.8 °F 23.0 °F 45% 30.01 in - NE 6.9 mph - N/A   Unknown
5:52 AM 42.1 °F 37.7 °F 21.9 °F 45% 30.02 in - NE 6.9 mph - N/A   Unknown
6:52 AM 42.1 °F 38.4 °F 21.9 °F 45% 30.04 in - NE 5.8 mph - N/A   Unknown
7:52 AM 46.9 °F - 21.9 °F 37% 30.05 in - NE 5.8 mph - N/A   Unknown
8:52 AM 61.0 °F - 26.1 °F 26% 30.03 in - Calm Calm - N/A   Unknown
9:52 AM 73.9 °F - 25.0 °F 16% 30.01 in - Calm Calm - N/A   Unknown
10:52 AM 82.0 °F - 21.0 °F 10% 29.99 in - SSW 4.6 mph - N/A   Unknown
11:52 AM 82.9 °F - 17.1 °F 9% 29.97 in - West 5.8 mph - N/A   Unknown
12:52 PM 82.9 °F - 19.9 °F 10% 29.95 in - SSW 13.8 mph - N/A   Unknown
1:52 PM 84.0 °F - 21.9 °F 10% 29.93 in - WSW 13.8 mph - N/A   Unknown
2:52 PM 82.9 °F - 21.9 °F 11% 29.91 in - WSW 11.5 mph - N/A   Unknown
3:52 PM 80.1 °F - 30.0 °F 16% 29.92 in - SW 13.8 mph - N/A   Unknown
4:52 PM 77.0 °F - 30.9 °F 19% 29.94 in - SW 13.8 mph - N/A   Unknown
5:52 PM 69.1 °F - 35.1 °F 29% 29.95 in - SSW 8.1 mph - N/A   Unknown
6:52 PM 61.0 °F - 35.1 °F 38% 29.98 in - Calm Calm - N/A   Unknown
7:52 PM 57.0 °F - 33.1 °F 40% 29.99 in - NE 5.8 mph - N/A   Unknown
8:52 PM 52.0 °F - 32.0 °F 47% 29.98 in - ENE 6.9 mph - N/A   Unknown
9:52 PM 51.1 °F - 32.0 °F 48% 29.98 in - NE 4.6 mph - N/A   Unknown
10:52 PM 50.0 °F - 32.0 °F 50% 29.97 in - NE 4.6 mph - N/A   Unknown
11:52 PM 46.0 °F 42.5 °F 30.0 °F 54% 29.97 in - NE 6.9 mph - N/A   Unknown